Tracking 18796 objects as of 19-September-2017
HD Live streaming from Space Station
objects crossing your sky now

AMC-10 (GE-10)

Track AMC-10 (GE-10) now!
AMC-10 (GE-10) is classified as:


NORAD ID: 28154
Int'l Code: 2004-003A
Perigee: 35,786.4 km
Apogee: 35,799.6 km
Inclination: 0.0 °
Period: 1,436.1 minutes
Semi major axis: 42163 km
RCS: 21.2115 m2 (large)
Launch date: February 5, 2004
Source: SOCIETE EUROPEENNE DES SATELLITES (SES)
Launch site: AIR FORCE EASTERN TEST RANGE (AFETR)

24 C-band transponders.
aabbcc
Your satellite tracking list
Your tracking list is empty





NASA's NSSDC Master Catalog

Two Line Element Set (TLE):
1 28154U 04003A   17262.13191149 +.00000056 +00000-0 +00000-0 0  9995
2 28154 000.0184 257.9767 0001571 253.4106 119.3486 01.00274494049896
Source of the keplerian elements: AFSPC